Simultaneous Nadir Overpasses (SNOs) Predictions

Prediction of SNOs between NPP and PACE Satellite Orbit:

Table of predicted SNOs for the next 14.0 days since TLE Epoch: 11/23/2024
Index Date (NPP) Time (NPP) Lat,Lon (NPP) SZA (NPP ) Date (PACE) Time (PACE) Lat,Lon (PACE) SZA (PACE ) Distance(km) Time Diff (sec)
1 11/24/2024 20:01:13 79.99,-159.06 102.47 11/24/2024 20:02:03 79.98,-158.94 102.44 2.29 50
2 11/24/2024 20:51:51 -79.80, 10.11 77.86 11/24/2024 20:51:06 -79.79, 10.24 77.86 2.72 45
3 11/26/2024 23:36:58 -79.95, -32.64 77.18 11/26/2024 23:37:59 -79.95, -32.67 77.20 0.55 61
4 11/27/2024 00:27:38 79.78, 136.33 102.53 11/27/2024 00:27:03 79.77, 136.39 102.53 1.40 35
5 11/29/2024 03:12:47 80.00, 92.92 103.30 11/29/2024 03:13:57 80.00, 92.93 103.28 0.39 70
6 11/29/2024 04:03:24 -79.78, -97.59 77.09 11/29/2024 04:02:59 -79.77, -97.60 77.08 0.41 25
7 12/01/2024 07:39:13 79.83, 27.93 103.37 12/01/2024 07:38:56 79.83, 28.02 103.36 1.85 17
8 12/03/2024 11:15:00 -79.87, 153.68 76.25 12/03/2024 11:14:51 -79.86, 153.81 76.26 2.59 9



Historial Predications of SNOs between NPP and PACE
